Flag Weather past 2 weeks in Yorkton, Saskatchewan, Canada

Now
28 °F

Overcast.


Feels Like: 18 °F
Forecast: 23 / 31 °F
Wind: 12 mph from Northeast

Location: Yorkton

Current Time: Oct 30, 2014 at 10:43:57 AM

Latest Report: Oct 30, 2014 at 10:00 AM


Visibility: 9 mi

Pressure: 30.56 "Hg

Humidity: 69%

Dew point: 19 °F

Location of YorktonLocation

Historic Weather in Yorkton — Graph

°F

Yorkton temperature yesterday

Maximum temperature yesterday: 36 °F (at 2:00 PM)
Minimum temperature yesterday: 28 °F (at 12:00 AM)
Average temperature yesterday: 31 °F

Past Weeks' High & Low Weather Summary

 TemperatureHumidityPressure
High70 °F (Oct 20, 3:00 PM)100% (Oct 18, 8:00 AM)30.55 "Hg (Oct 18, 8:00 AM)
Low27 °F (Oct 28, 11:00 PM)31% (Oct 25, 2:00 PM)29.51 "Hg (Oct 26, 3:00 PM)
Average43 °F76%29.88 "Hg
* Reported Oct 15 9:00 AM — Oct 30 9:48 AM, Yorkton, Weather by CustomWeather, © 2014

Note: Actual official high and low records may vary slightly from our data, if they occured in-between our weather recording intervals... More about our weather records

Advertising

Yorkton weather history for previous 24 hours

 ConditionsComfort  
Time TempWeatherWind HumidityBarometerVisibility
9:48 AM
Oct 30
28 °FOvercast.10 mph74%30.55 "Hg9 mi
9:00 AM27 °FOvercast.14 mph80%30.53 "Hg9 mi
8:00 AM27 °FOvercast.13 mph86%30.50 "Hg9 mi
7:00 AM27 °FOvercast.13 mph86%30.46 "Hg9 mi
6:00 AM28 °FOvercast.16 mph80%30.42 "Hg9 mi
5:00 AM28 °FOvercast.12 mph86%30.40 "Hg9 mi
4:00 AM28 °FOvercast.14 mph93%30.36 "Hg9 mi
3:00 AM30 °FOvercast.14 mph93%30.32 "Hg9 mi
2:00 AM30 °FOvercast.16 mph93%30.29 "Hg9 mi
1:00 AM30 °FIce fog.10 mph100%30.26 "Hg3 mi
12:50 AM30 °FIce fog.12 mph100%30.25 "Hg5 mi
12:04 AM32 °FIce fog.12 mph93%30.23 "Hg5 mi
11:55 PM
Oct 29
32 °FIce fog.10 mph93%30.23 "Hg6 mi
11:00 PM32 °FLow clouds.9 mph93%30.20 "Hg9 mi
10:59 PM32 °FLow clouds.10 mph93%30.20 "Hg9 mi
10:00 PM32 °FLow clouds.10 mph93%30.18 "Hg9 mi
9:00 PM32 °FLow clouds.13 mph93%30.16 "Hg9 mi
8:00 PM32 °FMostly cloudy.7 mph93%30.13 "Hg9 mi
7:00 PM32 °FOvercast.9 mph100%30.09 "Hg9 mi
6:00 PM34 °FLow clouds.9 mph87%30.08 "Hg9 mi
5:00 PM34 °FOvercast.9 mph93%30.05 "Hg9 mi
4:00 PM34 °FOvercast.8 mph93%30.02 "Hg9 mi
3:00 PM36 °FOvercast.6 mph87%29.99 "Hg9 mi
2:00 PM36 °FMostly cloudy.8 mph81%29.97 "Hg9 mi
1:00 PM34 °FLow clouds.8 mph87%29.98 "Hg9 mi
12:00 PM32 °FLow clouds.12 mph93%29.98 "Hg9 mi
11:00 AM32 °FLow clouds.12 mph93%30.00 "Hg9 mi
10:00 AM30 °FPartly sunny.12 mph93%30.00 "Hg9 mi
Weather by CustomWeather, © 2014

See weather overviewHow to use our weather pages